2022-074E (52948 NORAD) Tracking and Keplerian Element Data

This shows tracking and keplerian element data for the satellite.

Feedback or suggestion? Click here.




ElementValue
Catalog52948
Name2022-074E
Epoch Orbit146
Epoch Day192.8977816
Epoch Year2022
RAAN65.5168
Inclination44.9869
Eccentricity0.0005495
Argument of Perigee256.1585
Mean Anonmoly103.8684
Mean Motion15.24354043
Decay Rate5.567E-05
L11 52948U 22074E 22192.89778160 .00005567 00000+0 23462-3 0 9997
L22 52948 44.9869 65.5168 0005495 256.1585 103.8684 15.24354043 1468

Live tracking and technical data element details for 2022-074E (NORAD 52948). 2022-074E can be tracked NOW for your location showing map with azimuth and elevation plus other details from your city location.

Track the satellite on the map from your city or location and see movement details for azimuth, elevation, latitude, longitude, range, height, and movement on the map or in text.







IsCatalogInMostPopularTable: catalog: 52948, numindb: 8
Update: records affected: 1



GetName: 52948 2022-074E

Hit Count: updated at: Sun, 25 Sep 2022 09:02:52 GMT